{"data":{"norad_id":62648,"epoch":"2026-05-25T05:06:25.705728Z","epoch_age_seconds":56938,"freshness":"FRESH","line1":"1 62648U 25009AR  26145.21279752  .00009685  00000+0  33235-3 0  9991","line2":"2 62648  97.3952 227.5746 0003153  86.0460 274.1141 15.30355310 75459","mean_motion":15.3035531,"eccentricity":0.0003153,"inclination_deg":97.3952,"raan_deg":227.5746,"arg_perigee_deg":86.046,"mean_anomaly_deg":274.1141,"bstar":0.00033235,"rev_number":7545,"period_min":94.09579530913,"perigee_km":472.59066526637,"apogee_km":476.91209667941,"semimajor_km":6852.8883809729,"source":"CELESTRAK","updated_at":"2026-05-25T13:38:03.137266Z"}}